Complete Sellout of Sandwich Shop (formerly Jimmy John's) near Sacramento, CA

Lot #0109: Kairak BLU 3-Door Refrigerated Prep Station

Bidding is closed.
High Bid:$1,350.00
NA
Bidding Ended: Thu, Sep 19  10:09:23 am PT
High Bidder: HARPAL
Bid Increment: $50.00
Starting Bid: $5.00
Item Location: Citrus Heights, CA 95610
Item has been viewed 633 times.

Kairak BLU 3-Door Refrigerated Self-Contained Prep Station

  • Dimensions: 89"×33"×55"
  • Manufacturer: Kairak
  • Model Number: KBP-91S
  • Serial Number: K51865F16
  • Power Source: 115 volt/13.6 amp
  • NOTE: Contents NOT included
Bid Date Bid Amount Bidder
Sep 19, 2019 - 10:07:23 AM $1,350.00 iHARPAL
Sep 19, 2019 - 10:07:24 AM $1,350.00 iAllison.lo
Sep 19, 2019 - 10:06:18 AM $1,300.00 iHARPAL
Sep 19, 2019 - 10:06:19 AM $1,300.00 iAllison.lo
Sep 19, 2019 - 10:05:28 AM $1,250.00 iHARPAL
Sep 19, 2019 - 10:05:17 AM $1,200.00 iAllison.lo
Sep 19, 2019 - 10:05:18 AM $1,200.00 iHARPAL
Sep 19, 2019 - 10:04:57 AM $1,150.00 iAllison.lo
Sep 19, 2019 - 10:04:47 AM $1,100.00 iHARPAL
Sep 19, 2019 - 10:04:48 AM $1,100.00 iAllison.lo
Sep 19, 2019 - 9:02:17 AM $1,010.00 iHARPAL
Sep 19, 2019 - 9:02:17 AM $1,000.00 iAllison.lo
Sep 19, 2019 - 9:01:52 AM $960.00 iHARPAL
Sep 19, 2019 - 9:01:52 AM $950.00 iAllison.lo
Sep 19, 2019 - 8:51:01 AM $910.00 iAllison.lo
Sep 19, 2019 - 8:50:46 AM $900.00 iHARPAL
Sep 19, 2019 - 8:50:47 AM $900.00 iAllison.lo
Sep 19, 2019 - 7:13:41 AM $810.00 iHARPAL
Sep 19, 2019 - 7:13:41 AM $800.00 iAllison.lo
Sep 19, 2019 - 7:02:20 AM $760.00 iAllison.lo
Sep 19, 2019 - 7:02:20 AM $750.00 iHARPAL
Sep 19, 2019 - 7:01:55 AM $710.00 iHARPAL
Sep 19, 2019 - 7:01:55 AM $700.00 iAllison.lo
Sep 19, 2019 - 7:01:41 AM $630.00 iHARPAL
Sep 19, 2019 - 7:01:41 AM $620.00 iAllison.lo
Sep 19, 2019 - 5:30:36 AM $610.00 iHARPAL
Sep 19, 2019 - 5:30:14 AM $600.00 iAllison.lo
Sep 19, 2019 - 5:30:15 AM $600.00 iHARPAL
Sep 18, 2019 - 11:17:31 PM $510.00 iAllison.lo
Sep 18, 2019 - 11:17:21 PM $500.00 iHARPAL
Sep 18, 2019 - 11:17:22 PM $500.00 iAllison.lo
Sep 18, 2019 - 11:15:37 PM $461.00 iHARPAL
Sep 18, 2019 - 11:15:37 PM $451.00 iAllison.lo
Sep 18, 2019 - 11:15:33 PM $441.00 iHARPAL
Sep 18, 2019 - 11:15:33 PM $431.00 iAllison.lo
Sep 18, 2019 - 11:14:56 PM $421.00 iHARPAL
Sep 18, 2019 - 11:14:56 PM $411.00 iAllison.lo
Sep 18, 2019 - 11:14:46 PM $401.00 iHARPAL
Sep 18, 2019 - 11:14:46 PM $391.00 iAllison.lo
Sep 18, 2019 - 11:14:40 PM $381.00 iHARPAL
Sep 18, 2019 - 11:14:40 PM $371.00 iAllison.lo
Sep 18, 2019 - 11:14:32 PM $361.00 iHARPAL
Sep 18, 2019 - 11:14:32 PM $351.00 iAllison.lo
Sep 18, 2019 - 11:14:27 PM $341.00 iHARPAL
Sep 18, 2019 - 11:14:27 PM $331.00 iAllison.lo
Sep 18, 2019 - 11:14:12 PM $321.00 iHARPAL
Sep 18, 2019 - 11:14:12 PM $311.00 iAllison.lo
Sep 18, 2019 - 11:14:03 PM $301.00 iHARPAL
Sep 18, 2019 - 11:14:03 PM $291.00 iAllison.lo
Sep 18, 2019 - 11:11:46 PM $281.00 iHARPAL
Sep 18, 2019 - 11:11:46 PM $271.00 iAllison.lo
Sep 18, 2019 - 4:31:06 PM $261.00 iHARPAL
Sep 18, 2019 - 4:31:06 PM $251.00 idustinmiller1984
Sep 18, 2019 - 8:54:24 AM $220.00 iHARPAL
Sep 18, 2019 - 8:54:24 AM $210.00 idustinmiller1984
Sep 18, 2019 - 8:47:53 AM $160.00 iHARPAL
Sep 18, 2019 - 8:47:53 AM $150.00 idustinmiller1984
Sep 17, 2019 - 11:04:33 PM $135.00 idustinmiller1984
Sep 17, 2019 - 11:04:33 PM $125.00 irenegade1551
Sep 17, 2019 - 5:03:45 PM $105.00 irenegade1551
Sep 17, 2019 - 5:03:45 PM $100.00 idustinmiller1984
Sep 17, 2019 - 4:51:40 PM $80.00 idustinmiller1984
Sep 17, 2019 - 4:51:40 PM $75.00 irenegade1551
Sep 17, 2019 - 2:29:46 PM $60.00 idustinmiller1984
Sep 17, 2019 - 2:25:48 PM $55.00 iBBSTEEL
Sep 17, 2019 - 2:25:48 PM $50.00 idustinmiller1984
Sep 17, 2019 - 10:04:45 AM $5.00 iBBSTEEL
Click on any picture to see a larger image.